Miscellaneous Local Product
Issued by NWS Hastings, NE

Home | Current Version | Previous Version | Text Only | Print | Product List | Glossary On
Versions: 1 2 3 4 5 6 7 8 9 10 11 12 13 14 15 16 17 18 19 20 21 22 23 24 25 26 27 28 29 30 31 32 33 34 35 36 37 38 39 40 41 42 43 44 45 46 47 48 49 50
433
AXUS43 KGID 111102
MISGRI

GID CWA HOURLY WEATHER ROUNDUP
NATIONAL WEATHER SERVICE HASTINGS NE
500 AM CST THU FEB 11 2016

NOTE: "FAIR" INDICATES FEW OR NO CLOUDS BELOW 12,000 FEET WITH NO
SIGNIFICANT WEATHER AND/OR OBSTRUCTIONS TO VISIBILITY.

...SOUTH CENTRAL NEBRASKA...

CITY           SKY/WX    TMP DP  RH WIND       PRES   REMARKS
GRAND ISLAND   CLOUDY    26  22  84 N13       30.21S WCI  15
HASTINGS       CLOUDY    27  23  85 N13       30.20R WCI  16
KEARNEY        CLOUDY    28  25  86 N8        30.18S WCI  20
ORD            CLOUDY    28  25  88 E5        30.17F WCI  23
YORK           CLOUDY    23  19  86 N12       30.23R WCI  12
AURORA         CLOUDY    25  23  93 N7        30.21R WCI  17
LEXINGTON      CLOUDY    30  27  88 NW3       30.18R
HOLDREGE       CLOUDY    29  26  90 NE12      30.16F WCI  19
HEBRON         CLOUDY    24  22  89 N7        30.22R WCI  16

...NEBRASKA PANHANDLE...

CITY           SKY/WX    TMP DP  RH WIND       PRES   REMARKS
CHADRON        CLOUDY    25  22  88 W6        30.05F WCI  18
ALLIANCE       CLOUDY    24  20  84 CALM      30.06F
SCOTTSBLUFF    CLOUDY    31  24  75 N6        30.09S WCI  25
SIDNEY         CLOUDY    33  24  69 NW13      30.09F WCI  24

...WESTERN AND NORTH CENTRAL NEBRASKA...

CITY           SKY/WX    TMP DP  RH WIND       PRES   REMARKS
VALENTINE      CLOUDY    27  26  96 S6        30.12F WCI  20
AINSWORTH      CLOUDY    28  24  86 CALM      30.11F
ONEILL         CLOUDY    25  24  96 E3        30.17F FOG
BROKEN BOW     CLOUDY    30  27  88 N8        30.14S WCI  22
IMPERIAL       CLOUDY    27  23  85 CALM      30.13F
NORTH PLATTE   CLOUDY    26  23  88 NE9       30.14F WCI  17
MCCOOK         CLOUDY    27  24  89 S3        30.16S

...EASTERN NEBRASKA...

CITY           SKY/WX    TMP DP  RH WIND       PRES   REMARKS
NORFOLK        CLOUDY    19  15  84 E5        30.23R WCI  12
SO SIOUX CITY  CLOUDY    17   9  70 E5        30.29R WCI  10
TEKAMAH        CLOUDY    16   6  65 NE6       30.30R WCI   7
COLUMBUS       CLOUDY    19  10  68 NE6       30.25R WCI  11
ALBION         CLOUDY    23  19  86 E5        30.21S WCI  17
OMAHA EPPLEY   PTCLDY    15   6  67 N6        30.28R WCI   6
OFFUTT AFB     CLOUDY    15   9  77 NE10      30.26R WCI   3
MILLARD        PTCLDY    17  11  77 CALM      30.26R
LINCOLN        CLOUDY    16  13  88 N8        30.26R WCI   5
NEBRASKA CITY  CLOUDY    20  18  90 N12       30.23R WCI   9
BEATRICE       CLOUDY    22  20  93 NE7       30.23R WCI  13
FALLS CITY     CLOUDY    22  18  85 N8        30.22R WCI  12

...NORTHERN KANSAS...

CITY           SKY/WX    TMP DP  RH WIND       PRES   REMARKS
GOODLAND       CLOUDY    26  21  81 SW7       30.15F WCI  18
HILL CITY      CLOUDY    24  22  91 NW5       30.19R WCI  18
NORTON         CLOUDY    28  25  86 N6        30.18R WCI  22
PHILLIPSBURG   CLOUDY    30  28  93 CALM      30.20R
SMITH CENTER   CLOUDY    28  25  86 NE9G16    30.20R WCI  20
BELOIT         CLEAR     25  21  86 N13       30.20R WCI  13
HAYS           CLEAR     30  19  64 NE10      30.19R WCI  21
RUSSELL        CLEAR     29  25  85 N9        30.17R WCI  20
CONCORDIA      CLOUDY    24  22  91 N10       30.21R FOG     WCI  14
SALINA         CLOUDY    29  24  82 NE15      30.20R WCI  18
TOPEKA         CLEAR     24  19  81 N6        30.21R WCI  17



USA.gov is the U.S. government's official web portal to all federal, state and local government web resources and services.